Regional Weather Roundup
Issued by NWS

Home | Current Version | Previous Version | Text Only | Print | Product List | Glossary On
Versions: 1 2 3 4 5 6 7 8 9 10 11 12 13 14 15 16 17 18 19 20 21 22 23 24 25 26 27 28 29 30 31 32 33 34 35 36 37 38 39 40 41 42 43 44 45 46 47 48 49 50
000
ASUS45 KPSR 200810
RWRAZ

ARIZONA REGIONAL HOURLY WEATHER ROUNDUP
NATIONAL WEATHER SERVICE PHOENIX AZ
100 AM MST SAT DEC 20 2014

NOTE: FAIR INDICATES FEW OR NO CLOUDS BELOW 12,000 FEET WITH NO
SIGNIFICANT WEATHER AND/OR OBSTRUCTIONS TO VISIBILITY.

AZZ001>003-036-200900-
NORTHWEST ARIZONA

CITY           SKY/WX    TMP DP  RH WIND       PRES   REMARKS
BULLHEAD CITY  CLEAR     50  39  66 E5        30.17F
KINGMAN        CLEAR     37  31  78 CALM      30.18F
$$

AZZ004>008-015-016-018-200900-
NORTH CENTRAL ARIZONA

CITY           SKY/WX    TMP DP  RH WIND       PRES   REMARKS
GRAND CANYON   MOCLDY    27  24  89 NE3       30.19F
PRESCOTT       MOCLDY    37  27  67 CALM      30.16F
FLAGSTAFF      CLOUDY    25  22  88 NE3       30.17F
PAYSON         CLOUDY    37  27  65 SW3       30.19S
PAGE           MOCLDY    36  28  73 CALM      30.20F
$$

AZZ009>014-017-200900-
NORTHEAST ARIZONA

CITY           SKY/WX    TMP DP  RH WIND       PRES   REMARKS
WINSLOW        FOG       30  28  92 SE8       30.23S VSB 3/4 WCI  22
SAINT JOHNS    CLEAR     26  24  92 CALM      30.19F
WINDOW ROCK    PTCLDY    24  20  84 W3        30.20F
SHOW LOW       PTCLDY    23  19  86 SW3       30.21F
$$

AZZ023-200900-
GREATER PHOENIX AREA

CITY           SKY/WX    TMP DP  RH WIND       PRES   REMARKS
PHOENIX        CLOUDY    51  42  71 E3        30.12S
BUCKEYE          N/A     46  46 100 E3        30.13F
LUKE AFB       CLOUDY    48  45  88 N5        30.11F
DEER VALLEY    CLOUDY    47  41  80 CALM      30.12S
SCOTTSDALE     CLOUDY    49  41  74 CALM      30.13F
MESA-GATEWAY   MOCLDY    43  39  87 E7        30.14F
$$

AZZ027-028-200900-
SOUTHWEST MARICOPA COUNTY AND PINAL COUNTY

CITY           SKY/WX    TMP DP  RH WIND       PRES   REMARKS
CASA GRANDE    PTCLDY    43  39  87 CALM      30.12F
GILA BEND      PTSUNNY   46  41  84 NW1       30.14S
$$

AZZ503-504-507>509-200900-
SOUTHEAST ARIZONA

CITY           SKY/WX    TMP DP  RH WIND       PRES   REMARKS
TUCSON         PTCLDY    43  37  79 SE6       30.16F
DAVIS-MONTHAN  PTCLDY    41  37  87 SE3       30.13F
NOGALES        CLEAR     35  30  82 E6        30.14F WCI  30
SIERRA VISTA   CLEAR     36  28  73 SW5       30.15F WCI  32
DOUGLAS        CLEAR     28  26  92 CALM      30.15F
SAFFORD        CLEAR     34  33  96 CALM      30.16F
$$

AZZ020-021-025-026-031-200900-
SOUTHWEST ARIZONA

CITY           SKY/WX    TMP DP  RH WIND       PRES   REMARKS
YUMA           PTCLDY   N/A N/A N/A CALM      30.13F
$$

CAZ031-033-041-043-047-048-061-200900-
SOUTHERN CALIFORNIA

CITY           SKY/WX    TMP DP  RH WIND       PRES   REMARKS
DOWNTOWN L.A.  CLEAR     53  47  79 CALM      30.18R
L.A. AIRPORT   CLEAR     56  48  74 VRB3      30.18R
SAN DIEGO      MOCLDY    57  51  80 CALM      30.19S
BURBANK        CLEAR     51  45  79 NW6       30.17R
ONTARIO        PTCLDY    52  47  83 CALM      30.17F
RIVERSIDE      CLEAR     50  47  89 NE3       30.18S
PALM SPRINGS   PTCLDY    52  42  69 CALM      30.17S
EL CENTRO NAS  PTCLDY    47  39  74 S3        30.13F
IMPERIAL       PTCLDY    48  39  71 SE3       30.12F
BLYTHE         PTCLDY    48  46  93 N7        30.15S
NEEDLES        CLEAR     48  41  76 S3        30.16F
$$

NVZ020-UTZ003-200900-
SOUTHERN NEVADA-UTAH

CITY           SKY/WX    TMP DP  RH WIND       PRES   REMARKS
LAS VEGAS      MOCLDY    46  37  71 S7        30.14F
SALT LAKE CITY CLOUDY    39  34  82 CALM      30.13F
$$

NMZ009-TXZ055-200900-
NEW MEXICO-WEST TEXAS

CITY           SKY/WX    TMP DP  RH WIND       PRES   REMARKS
ALBUQUERQUE    PTCLDY    32  24  72 N5        30.18F WCI  27
EL PASO        CLEAR     38  28  67 CALM      30.15F
$$


........................KEY........................
SKY/WX - SKY CONDITION/WEATHER
TMP    - TEMPERATURE IN FAHRENHEIT
DP     - DEW POINT IN FAHRENHEIT
RH     - RELATIVE HUMIDITY IN PERCENT
WIND   - DIRECTION AND SPEED IN MILES PER HOUR (MPH)
VRB    - VARIABLE WIND DIRECTION
PRES   - MEAN SEA LEVEL PRESSURE IN INCHES OF MERCURY
         F - FALLING PRESSURE   R - RISING PRESSURE
         S - STEADY PRESSURE
VSB    - VISIBILITY IN MILES
HX     - HEAT INDEX IN FAHRENHEIT
WCI    - WIND CHILL INDEX IN FAHRENHEIT
TC     - TEMPERATURE IN CELSIUS WHICH IS ALSO KNOWN AS
         TEMPERATURE IN CENTIGRADE
AFB    - AIR FORCE BASE
         LUKE AFB IS LUKE AIR FORCE BASE
         DAVIS-MONTHAN IS DAVIS-MONTHAN AIR FORCE BASE
NAS    - NAVAL AIR STATION
         EL CENTRO NAS IS EL CENTRO NAVAL AIR STATION
N/A    - NOT AVAILABLE


USA.gov is the U.S. government's official web portal to all federal, state and local government web resources and services.